[[{"header":{"parameterUnit":"m.s-1","parameterCategory":1,"la1":30.2991,"la2":30.254,"lo1":-89.0895,"lo2":-89.0444,"dy":0.0017,"dx":0.0017,"nx":28,"ny":28,"refTime":"2024-04-29T21:00:00:Z","depth":0,"parameterNumber":2,"parameterNumberName":"U-component_of_WINDS"},"data":[0,0,0,0,0,0,0,0,0,0,0,0,0,0,0,0,0,0,0,0,0,0,0,0,0,0,0,0,0,0,0,0,0,0,0,0,0,0,0,0,0,0,0,0,0,0,0,0,0,0,0,0,0,0,0,0,0,0,-0.6955,-0.6955,0,-0.6951,-0.6951,-0.6951,-0.6947,-0.6947,-0.6947,-0.6947,-0.6943,-0.6943,-0.6943,0,0,0,0,0,0,0,0,0,0,0,0,0,-0.6957,-0.6957,-0.6955,-0.6955,-0.6954,-0.6951,-0.6951,-0.6951,-0.6947,-0.6947,-0.6947,-0.6947,-0.6943,-0.6943,-0.6943,0,0,0,0,0,0,0,0,0,0,0,0,0,-0.6955,-0.6957,-0.6955,-0.6952,-0.6952,-0.6951,-0.6951,-0.6951,-0.6947,-0.6947,-0.6947,-0.6947,-0.6943,-0.6943,-0.6943,-0.6944,0,0,-0.6943,-0.6943,0,0,0,0,0,0,0,0,-0.6955,-0.6955,-0.6953,-0.6952,-0.6952,-0.695,-0.6951,-0.6949,-0.6947,-0.6949,-0.6947,-0.6947,-0.6945,-0.6945,-0.6944,-0.6944,-0.6944,-0.6943,-0.6943,-0.6943,-0.6943,0,0,0,0,0,0,0,-0.6956,-0.6955,-0.6953,-0.6952,-0.6952,-0.6951,-0.6951,-0.695,-0.6948,-0.6949,-0.6948,-0.6948,-0.6945,-0.6945,-0.6944,-0.6944,-0.6943,-0.6943,-0.6942,-0.6942,-0.6945,-0.6945,0,0,0,0,0,0,-0.6956,-0.6955,-0.6953,-0.6953,-0.6954,-0.6951,-0.6951,-0.695,-0.6948,-0.6947,-0.6948,-0.6948,-0.6945,-0.6944,-0.6944,-0.6946,-0.6943,-0.6942,-0.6942,-0.6945,-0.6945,-0.6945,0,0,0,0,0,0,-0.6956,-0.6956,-0.6953,-0.6954,-0.6954,-0.6951,-0.6951,-0.695,-0.695,-0.6947,-0.6947,-0.6948,-0.6945,-0.6944,-0.6944,-0.6946,-0.6942,-0.6942,-0.6944,-0.6945,-0.6945,-0.6949,0,0,0,0,0,0,-0.6956,-0.6956,-0.6956,-0.6954,-0.6954,-0.6954,-0.6951,-0.695,-0.695,-0.695,-0.6947,-0.6947,-0.6945,-0.6944,-0.6944,-0.6945,-0.6942,-0.6944,-0.6944,-0.6945,-0.6948,-0.6949,-0.6949,0,0,0,0,0,-0.6956,-0.6958,-0.6957,-0.6956,-0.6954,-0.6954,-0.6954,-0.6951,-0.695,-0.695,-0.6949,-0.6947,-0.6946,-0.6945,-0.6944,-0.6945,-0.6944,-0.6944,-0.6945,-0.6948,-0.6949,-0.6949,0,0,0,0,0,0,-0.696,-0.6957,-0.6956,-0.6957,-0.6955,-0.6953,-0.6954,-0.6952,-0.6951,-0.6951,-0.6948,-0.6947,-0.6948,-0.6947,-0.6946,-0.6947,-0.6945,-0.6945,-0.6947,-0.6948,-0.6949,-0.6949,-0.6942,0,0,0,0,0,-0.6961,-0.696,-0.6958,-0.6959,-0.6958,-0.6956,-0.6956,-0.6954,-0.6953,-0.6952,-0.6951,-0.6949,-0.6949,-0.6948,-0.6948,-0.6948,-0.6948,-0.6949,-0.695,-0.695,-0.695,-0.6951,-0.6951,-0.6946,-0.6946,-0.6946,0,0,-0.6962,-0.6961,-0.6961,-0.696,-0.6958,-0.6958,-0.6956,-0.6956,-0.6956,-0.6952,-0.6952,-0.6951,-0.6949,-0.695,-0.695,-0.6949,-0.6952,-0.695,-0.6951,-0.6951,-0.6951,-0.6952,-0.6952,-0.6946,-0.6946,-0.6946,0,0,-0.6965,-0.6964,-0.6965,-0.6964,-0.6962,-0.6961,-0.6961,-0.6959,-0.6958,-0.6958,-0.6956,-0.6956,-0.6955,-0.6954,-0.6953,-0.6956,-0.6954,-0.6956,-0.6959,-0.6959,-0.696,-0.696,-0.6961,-0.6962,-0.6956,-0.6956,-0.6956,0,-0.6967,-0.6967,-0.6965,-0.6965,-0.6965,-0.6962,-0.6963,-0.6962,-0.696,-0.696,-0.6959,-0.6958,-0.6957,-0.6957,-0.6958,-0.6957,-0.6957,-0.6956,-0.696,-0.696,-0.696,-0.6961,-0.6962,-0.6957,-0.6957,-0.6957,-0.6957,0,-0.697,-0.697,-0.697,-0.6969,-0.6969,-0.6969,-0.6967,-0.6967,-0.6966,-0.6965,-0.6965,-0.6963,-0.6962,-0.6962,-0.6961,-0.6963,-0.6962,-0.696,-0.6958,-0.6961,-0.6962,-0.6963,-0.6957,-0.6957,-0.6957,-0.6957,0,0,-0.6974,-0.6972,-0.6972,-0.6972,-0.6971,-0.697,-0.6971,-0.697,-0.697,-0.6969,-0.697,-0.6969,-0.6968,-0.6967,-0.6965,-0.6966,-0.6969,-0.6964,-0.6964,-0.6965,-0.6971,-0.6972,-0.6972,-0.6968,-0.6968,-0.6968,-0.6971,0,-0.6977,-0.6977,-0.6976,-0.6977,-0.6977,-0.6975,-0.6975,-0.6974,-0.6973,-0.6973,-0.6972,-0.6971,-0.697,-0.6969,-0.697,-0.6968,-0.697,-0.6968,-0.6968,-0.6968,-0.6968,-0.6973,-0.6974,-0.6977,-0.6971,-0.6971,-0.6971,0,-0.698,-0.6979,-0.698,-0.6979,-0.6979,-0.6979,-0.6979,-0.6979,-0.6978,-0.6977,-0.6976,-0.6975,-0.6975,-0.6973,-0.6974,-0.6973,-0.6972,-0.6972,-0.6972,-0.6972,-0.6969,-0.6972,-0.6978,-0.6978,-0.6972,-0.6972,-0.6972,0,-0.6983,-0.6983,-0.6983,-0.6983,-0.6981,-0.6982,-0.6981,-0.698,-0.698,-0.698,-0.6979,-0.6979,-0.6979,-0.6978,-0.6977,-0.6975,-0.6977,-0.6975,-0.6977,-0.6977,-0.6977,-0.6977,-0.6982,-0.6977,-0.6977,-0.6977,-0.6977,0,-0.6986,-0.6986,-0.6985,-0.6985,-0.6986,-0.6984,-0.6985,-0.6984,-0.6983,-0.6984,-0.6982,-0.6982,-0.698,-0.698,-0.6978,-0.6979,-0.6979,-0.6978,-0.6978,-0.6978,-0.6978,-0.6978,-0.6978,-0.6977,-0.6977,-0.6977,-0.6977,0,-0.6989,-0.6988,-0.6989,-0.6987,-0.6987,-0.6988,-0.6987,-0.6987,-0.6986,-0.6986,-0.6986,-0.6985,-0.6985,-0.6983,-0.6983,-0.6982,-0.6983,-0.6982,-0.6983,-0.6983,-0.6984,-0.6984,-0.6989,-0.699,-0.6985,-0.6985,-0.6985,0,-0.6991,-0.6992,-0.6991,-0.6991,-0.699,-0.699,-0.699,-0.6989,-0.6989,-0.6988,-0.6989,-0.6988,-0.6988,-0.6988,-0.6987,-0.6987,-0.6986,-0.6988,-0.6986,-0.6986,-0.6986,-0.6986,-0.6986,-0.6988,-0.6988,-0.6988,-0.6988,0,-0.6995,-0.6994,-0.6994,-0.6994,-0.6994,-0.6994,-0.6993,-0.6994,-0.6992,-0.6992,-0.6992,-0.6992,-0.6992,-0.6992,-0.6991,-0.6991,-0.6989,-0.6989,-0.6989,-0.6989,-0.699,-0.699,-0.6984,-0.6989,-0.6989,-0.6989,-0.6989,-0.6988,-0.6997,-0.6998,-0.6997,-0.6997,-0.6997,-0.6997,-0.6997,-0.6997,-0.6997,-0.6996,-0.6995,-0.6996,-0.6995,-0.6994,-0.6994,-0.6994,-0.6993,-0.6994,-0.6994,-0.6994,-0.6994,-0.699,-0.6994,-0.6994,-0.6994,-0.6994,-0.6994,0,-0.7001,-0.7,-0.7001,-0.7,-0.7001,-0.6999,-0.6999,-0.6999,-0.7,-0.6999,-0.6999,-0.6999,-0.6999,-0.6998,-0.6998,-0.6999,-0.6998,-0.6999,-0.6998,-0.6998,-0.6995,-0.6995,-0.6999,-0.6999,-0.6999,-0.6999,-0.6999,-0.6999,-0.7003,-0.7003,-0.7003,-0.7004,-0.7003,-0.7004,-0.7004,-0.7003,-0.7003,-0.7003,-0.7004,-0.7003,-0.7002,-0.7002,-0.7002,-0.7002,-0.7002,-0.7003,-0.7002,-0.6999,-0.6999,-0.6998,-0.6998,-0.7003,-0.7003,-0.7006,-0.7006,-0.7006]},{"header":{"parameterUnit":"m.s-1","parameterCategory":1,"la1":30.2991,"la2":30.254,"lo1":-89.0895,"lo2":-89.0444,"dy":0.0017,"dx":0.0017,"nx":28,"ny":28,"refTime":"2024-04-29T21:00:00:Z","depth":0,"parameterNumber":3,"parameterNumberName":"V-component_of_WINDS"},"data":[0,0,0,0,0,0,0,0,0,0,0,0,0,0,0,0,0,0,0,0,0,0,0,0,0,0,0,0,0,0,0,0,0,0,0,0,0,0,0,0,0,0,0,0,0,0,0,0,0,0,0,0,0,0,0,0,0,0,2.9226,2.9227,0,2.9322,2.9323,2.9324,2.9335,2.9334,2.9333,2.9332,2.9427,2.943,2.9434,0,0,0,0,0,0,0,0,0,0,0,0,0,2.9049,2.9052,2.9226,2.9227,2.9228,2.9322,2.9323,2.9325,2.9335,2.9334,2.9333,2.9332,2.9426,2.943,2.9434,0,0,0,0,0,0,0,0,0,0,0,0,0,2.9133,2.9053,2.9226,2.9245,2.9248,2.9322,2.9323,2.9325,2.9335,2.9334,2.9333,2.9331,2.9424,2.9429,2.9435,2.9495,0,0,2.945,2.9452,0,0,0,0,0,0,0,0,2.9128,2.914,2.9241,2.9244,2.9247,2.9315,2.9296,2.9382,2.9336,2.9302,2.9332,2.933,2.9391,2.9398,2.942,2.9499,2.9503,2.9451,2.9454,2.9456,2.9457,0,0,0,0,0,0,0,2.9122,2.9136,2.9264,2.9242,2.9246,2.9248,2.9258,2.9312,2.9353,2.9305,2.9306,2.9317,2.9392,2.9415,2.9422,2.9505,2.945,2.9455,2.9458,2.946,2.964,2.9642,0,0,0,0,0,0,2.9113,2.9131,2.9261,2.9267,2.9183,2.9252,2.9264,2.9295,2.9353,2.936,2.9318,2.9317,2.9407,2.9416,2.9425,2.9501,2.9456,2.9461,2.9464,2.9638,2.964,2.9642,0,0,0,0,0,0,2.911,2.9125,2.9257,2.9199,2.9216,2.9257,2.9291,2.9297,2.932,2.9363,2.937,2.9334,2.9406,2.9418,2.9478,2.9504,2.9463,2.9468,2.9636,2.9639,2.9641,2.9651,0,0,0,0,0,0,2.9104,2.9124,2.9147,2.92,2.9219,2.9309,2.9293,2.93,2.9329,2.9329,2.938,2.9386,2.9406,2.947,2.9483,2.951,2.9472,2.9634,2.9637,2.964,2.9649,2.9654,2.9658,0,0,0,0,0,2.9098,2.9145,2.9149,2.9164,2.925,2.931,2.9322,2.9344,2.9331,2.9355,2.9383,2.9385,2.9499,2.9476,2.9491,2.952,2.9633,2.9636,2.964,2.9647,2.9653,2.9658,0,0,0,0,0,0,2.9094,2.9153,2.9157,2.9223,2.9262,2.9312,2.9343,2.9349,2.9392,2.9389,2.9414,2.9425,2.9484,2.9508,2.9482,2.9582,2.9564,2.9571,2.9565,2.9571,2.9575,2.9569,2.9476,0,0,0,0,0,2.9101,2.9146,2.9194,2.9248,2.9267,2.9302,2.9329,2.9343,2.9384,2.94,2.9432,2.9471,2.9516,2.9544,2.9588,2.9652,2.9664,2.968,2.9684,2.9688,2.9694,2.9731,2.9738,2.9655,2.9655,2.9655,0,0,2.9115,2.9153,2.9179,2.9248,2.928,2.9325,2.9316,2.9364,2.9398,2.9407,2.9466,2.9491,2.9536,2.9599,2.9628,2.962,2.9719,2.9693,2.9695,2.9699,2.9735,2.9743,2.975,2.9657,2.9657,2.9656,0,0,2.9165,2.9198,2.9246,2.9279,2.9328,2.9351,2.9363,2.9413,2.943,2.949,2.9499,2.9539,2.9615,2.9647,2.9673,2.9736,2.974,2.975,2.9774,2.981,2.9816,2.9822,2.9846,2.9854,2.9755,2.9755,2.9755,0,2.9176,2.9246,2.927,2.9319,2.9349,2.9361,2.941,2.944,2.95,2.952,2.9511,2.9608,2.9639,2.971,2.9726,2.9746,2.976,2.9744,2.9814,2.982,2.9826,2.9848,2.9857,2.9756,2.9756,2.9756,2.9756,0,2.9258,2.9307,2.934,2.94,2.9433,2.9482,2.9513,2.9544,2.9555,2.9578,2.964,2.9677,2.9729,2.9747,2.9757,2.982,2.9814,2.9809,2.9792,2.9834,2.9856,2.9865,2.9757,2.9757,2.9757,2.9757,0,0,2.9307,2.9381,2.9393,2.9421,2.9476,2.9514,2.9563,2.9615,2.9641,2.9682,2.9724,2.9789,2.9786,2.9815,2.983,2.9861,2.991,2.9852,2.9854,2.9862,2.9982,2.9986,2.9995,2.9912,2.9914,2.9915,2.9978,0,2.9364,2.9454,2.9477,2.9553,2.9598,2.9611,2.9653,2.9692,2.9715,2.9757,2.9782,2.9828,2.9819,2.9838,2.9869,2.9897,2.9934,2.9893,2.9951,2.9953,2.994,3.0006,3.0011,3.0068,2.9987,2.9988,2.9989,0,2.9442,2.9487,2.9568,2.9619,2.9639,2.9677,2.9727,2.9767,2.981,2.9825,2.9859,2.9871,2.9922,2.9902,2.9973,2.9945,2.997,2.9987,2.999,2.9997,2.9974,3.0016,3.0087,3.0096,3.0003,3.0001,3.0001,0,2.9471,2.9551,2.9611,2.9634,2.9694,2.9721,2.9747,2.979,2.982,2.9863,2.9883,2.9932,2.9958,2.9995,3.0019,3.0002,3.0089,3.007,3.0102,3.0102,3.012,3.0119,3.0198,3.0135,3.0135,3.0135,3.0135,0,2.9532,2.9582,2.9625,2.9661,2.9717,2.9743,2.9797,2.9823,2.9861,2.9902,2.9915,2.9953,2.9982,3.0025,3.0044,3.01,3.0112,3.0125,3.013,3.0125,3.0123,3.0142,3.0139,3.0137,3.0137,3.0136,3.0136,0,2.9574,2.9605,2.9671,2.9723,2.9737,2.9776,2.9821,2.9856,2.988,2.9933,2.9946,2.9984,3.0035,3.0063,3.0125,3.0138,3.0201,3.0203,3.0187,3.0189,3.022,3.0217,3.0314,3.0329,3.0256,3.0257,3.0257,0,2.9612,2.965,2.9707,2.9737,2.9764,2.9811,2.9842,2.9869,2.9902,2.9955,2.9984,3.0036,3.0078,3.0158,3.0191,3.0239,3.0243,3.0274,3.025,3.0244,3.0245,3.0242,3.0247,3.0278,3.0278,3.0279,3.0279,0,2.9675,2.9689,2.9735,2.9786,2.9824,2.9865,2.9906,2.9929,2.9963,2.9998,3.0051,3.0084,3.0149,3.02,3.0252,3.0278,3.0284,3.0287,3.0297,3.0292,3.0282,3.0289,3.0199,3.0284,3.0284,3.0283,3.0283,3.0283,2.9717,2.9752,2.9799,2.9849,2.9883,2.9921,2.9958,2.9987,3.0032,3.0089,3.0101,3.0157,3.02,3.027,3.0298,3.0341,3.0335,3.0349,3.0353,3.0357,3.0359,3.0274,3.035,3.035,3.035,3.035,3.035,0,2.9782,2.9813,2.9859,2.9917,2.9957,2.9961,3.0007,3.0039,3.0089,3.0129,3.0172,3.0232,3.0282,3.0319,3.037,3.0398,3.0402,3.0411,3.0409,3.0415,3.036,3.0347,3.0406,3.0406,3.0406,3.0406,3.0406,3.0406,2.9821,2.9881,2.99,2.9978,3.0008,3.0064,3.0089,3.0125,3.0157,3.0225,3.0268,3.0292,3.0331,3.0385,3.0431,3.044,3.0459,3.0467,3.0477,3.0425,3.0419,3.0413,3.0401,3.047,3.047,3.0528,3.0529,3.0529]}]]